,,Stat6,,Stat2,,Stat8,,Stat9,,Stat10,,Wind1,,Wind1,
time,status,PA1M_AVG,status,PR1M_SUM,status,RH1M_AVG,status,SR1M_AVG,status,TA1M_AVG,status,W1dAve1m,status,W1sAve1m,
2007-08-22, 07:00:02,VALID,917.481,VALID,0,VALID,100,VALID,16.1148,VALID,18.3471,VALID,44,VALID,0.00130208,
2007-08-22, 07:01:00,VALID,917.51,VALID,0,VALID,100,VALID,15.8601,VALID,18.3762,VALID,44,VALID,0,
2007-08-22, 07:02:00,VALID,917.52,VALID,0,VALID,100,VALID,21.6336,VALID,18.4189,VALID,44,VALID,0.000363372,
2007-08-22, 07:03:00,VALID,917.532,VALID,0,VALID,100,VALID,27.7637,VALID,18.4411,VALID,44,VALID,0.238782,
2007-08-22, 07:04:00,VALID,917.529,VALID,0,VALID,100,VALID,27.7806,VALID,18.464,VALID,44,VALID,0.185742,
2007-08-22, 07:05:00,VALID,917.516,VALID,0,VALID,100,VALID,31.5504,VALID,18.4934,VALID,44,VALID,0.11441,
2007-08-22, 07:06:00,VALID,917.516,VALID,0,VALID,100,VALID,31.1938,VALID,18.5029,VALID,71,VALID,0.642223,
2007-08-22, 07:07:00,VALID,917.511,VALID,0,VALID,100,VALID,21.3619,VALID,18.5548,VALID,52,VALID,0.501598,
2007-08-22, 07:08:00,VALID,917.499,VALID,0,VALID,100,VALID,31.7372,VALID,18.613,VALID,41,VALID,0.247024,
2007-08-22, 07:09:00,VALID,917.487,VALID,0,VALID,100,VALID,33.5541,VALID,18.6556,VALID,41,VALID,0.521802,
2007-08-22, 07:10:00,VALID,917.48,VALID,0,VALID,100,VALID,25.6411,VALID,18.6561,VALID,41,VALID,0.598899,
2007-08-22, 07:11:00,VALID,917.471,VALID,0,VALID,100,VALID,33.0277,VALID,18.6748,VALID,41,VALID,0.545945,
2007-08-22, 07:12:00,VALID,917.48,VALID,0,VALID,100,VALID,48.1407,VALID,18.6686,VALID,41,VALID,0.501674,
2007-08-22, 07:13:00,VALID,917.493,VALID,0,VALID,100,VALID,68.8912,VALID,18.6588,VALID,41,VALID,0.419872,
2007-08-22, 07:14:00,VALID,917.512,VALID,0,VALID,100,VALID,70.0459,VALID,18.682,VALID,41,VALID,0.411337,
2007-08-22, 07:15:00,VALID,917.522,VALID,0,VALID,99.9926,VALID,71.8459,VALID,18.7045,VALID,41,VALID,0.415396,
2007-08-22, 07:16:00,VALID,917.527,VALID,0,VALID,99.8896,VALID,73.7817,VALID,18.708,VALID,41,VALID,0.467187,
2007-08-22, 07:17:00,VALID,917.533,VALID,0,VALID,99.7714,VALID,75.4288,VALID,18.7205,VALID,42,VALID,0.572743,
2007-08-22, 07:18:00,VALID,917.543,VALID,0,VALID,99.7587,VALID,77.3986,VALID,18.7364,VALID,38,VALID,0.17016,
2007-08-22, 07:19:00,VALID,917.551,VALID,0,VALID,99.7345,VALID,79.9627,VALID,18.7826,VALID,38,VALID,0.437686,
2007-08-22, 07:20:00,VALID,917.567,VALID,0,VALID,99.8184,VALID,82.8834,VALID,18.7978,VALID,38,VALID,0.0926599,
2007-08-22, 07:21:00,VALID,917.575,VALID,0,VALID,99.924,VALID,85.906,VALID,18.8435,VALID,38,VALID,0.139535,
2007-08-22, 07:22:00,VALID,917.584,VALID,0,VALID,99.8108,VALID,89.1324,VALID,18.8599,VALID,40,VALID,0.439174,
2007-08-22, 07:23:00,VALID,917.597,VALID,0,VALID,99.5285,VALID,56.9197,VALID,18.8602,VALID,52,VALID,0.57049,
2007-08-22, 07:24:00,VALID,917.599,VALID,0,VALID,99.2665,VALID,55.3235,VALID,18.8572,VALID,55,VALID,0.40532,
2007-08-22, 07:25:00,VALID,917.604,VALID,0,VALID,99.3912,VALID,64.663,VALID,18.8898,VALID,55,VALID,0.138672,
2007-08-22, 07:26:00,VALID,917.617,VALID,0,VALID,99.4789,VALID,63.3894,VALID,18.9183,VALID,55,VALID,0.129192,
2007-08-22, 07:27:00,VALID,917.619,VALID,0,VALID,99.587,VALID,60.5027,VALID,18.9709,VALID,55,VALID,0.178199,
2007-08-22, 07:28:00,VALID,917.638,VALID,0,VALID,99.4675,VALID,60.8423,VALID,19.0029,VALID,41,VALID,0.528646,
2007-08-22, 07:29:00,VALID,917.632,VALID,0,VALID,99.0822,VALID,92.8851,VALID,19.0126,VALID,34,VALID,0.56936,
2007-08-22, 07:30:00,VALID,917.624,VALID,0,VALID,99.3085,VALID,124.249,VALID,19.0575,VALID,35,VALID,0.541548,
2007-08-22, 07:31:00,VALID,917.611,VALID,0,VALID,99.2653,VALID,130.277,VALID,19.1129,VALID,16,VALID,0.698219,
2007-08-22, 07:32:00,VALID,917.609,VALID,0,VALID,99.1902,VALID,135.337,VALID,19.1389,VALID,12,VALID,0.418945,
2007-08-22, 07:33:00,VALID,917.586,VALID,0,VALID,99.2017,VALID,138.343,VALID,19.2035,VALID,356,VALID,0.309411,
2007-08-22, 07:34:00,VALID,917.596,VALID,0,VALID,98.8736,VALID,139.582,VALID,19.2072,VALID,314,VALID,0.466273,
2007-08-22, 07:35:00,VALID,917.571,VALID,0,VALID,98.5048,VALID,139.82,VALID,19.1396,VALID,278,VALID,0.474805,
2007-08-22, 07:36:00,VALID,917.569,VALID,0,VALID,98.646,VALID,139.956,VALID,19.065,VALID,278,VALID,0.499822,
2007-08-22, 07:37:00,VALID,917.572,VALID,0,VALID,98.9982,VALID,70.1988,VALID,19.0228,VALID,278,VALID,0.519886,
2007-08-22, 07:38:00,VALID,917.575,VALID,0,VALID,99.1254,VALID,43.403,VALID,18.9862,VALID,271,VALID,0.502418,
2007-08-22, 07:39:00,VALID,917.587,VALID,0,VALID,99.3123,VALID,47.6482,VALID,18.9672,VALID,260,VALID,0.324023,
2007-08-22, 07:40:00,VALID,917.583,VALID,0,VALID,99.1991,VALID,64.7819,VALID,18.951,VALID,260,VALID,0.28404,
2007-08-22, 07:41:00,VALID,917.598,VALID,0,VALID,99.3721,VALID,89.5399,VALID,18.9443,VALID,260,VALID,0.0982921,
2007-08-22, 07:42:00,VALID,917.601,VALID,0,VALID,99.5539,VALID,106.436,VALID,18.973,VALID,260,VALID,0,
2007-08-22, 07:43:00,VALID,917.604,VALID,0,VALID,99.7447,VALID,134.233,VALID,19.0448,VALID,260,VALID,0,
2007-08-22, 07:44:00,VALID,917.628,VALID,0,VALID,100,VALID,157.837,VALID,19.178,VALID,277,VALID,0.176897,
2007-08-22, 07:45:00,VALID,917.65,VALID,0,VALID,99.7973,VALID,175.429,VALID,19.2796,VALID,321,VALID,0.382813,
2007-08-22, 07:46:00,VALID,917.654,VALID,0,VALID,99.1661,VALID,185.753,VALID,19.313,VALID,39,VALID,0.784268,
2007-08-22, 07:47:00,VALID,917.677,VALID,0,VALID,98.9143,VALID,192.325,VALID,19.3741,VALID,54,VALID,0.629207,
2007-08-22, 07:48:00,VALID,917.712,VALID,0,VALID,98.8037,VALID,202.445,VALID,19.5041,VALID,50,VALID,0.700707,
2007-08-22, 07:49:00,VALID,917.723,VALID,0,VALID,98.1132,VALID,253.473,VALID,19.566,VALID,56,VALID,0.85992,
2007-08-22, 07:50:00,VALID,917.75,VALID,0,VALID,97.9008,VALID,321.498,VALID,19.6534,VALID,55,VALID,1.03563,
2007-08-22, 07:51:00,VALID,917.747,VALID,0,VALID,98.1857,VALID,311.649,VALID,19.8156,VALID,48,VALID,0.775,
2007-08-22, 07:52:00,VALID,917.758,VALID,0,VALID,97.9886,VALID,308.593,VALID,20.0006,VALID,48,VALID,0.770531,
2007-08-22, 07:53:00,VALID,917.745,VALID,0,VALID,95.5089,VALID,290.101,VALID,20.03,VALID,75,VALID,0.563672,
2007-08-22, 07:54:00,VALID,917.747,VALID,0,VALID,95.4059,VALID,300.034,VALID,20.2267,VALID,32,VALID,0.714472,
2007-08-22, 07:55:00,VALID,917.744,VALID,0,VALID,94.863,VALID,276.957,VALID,20.4601,VALID,20,VALID,0.437089,
2007-08-22, 07:56:00,VALID,917.741,VALID,0,VALID,93.5596,VALID,237.426,VALID,20.651,VALID,22,VALID,0.41353,
2007-08-22, 07:57:00,VALID,917.744,VALID,0,VALID,92.6847,VALID,218.068,VALID,20.8238,VALID,22,VALID,0.378125,
2007-08-22, 07:58:00,VALID,917.744,VALID,0,VALID,92.1646,VALID,189.217,VALID,20.9828,VALID,22,VALID,0.113467,
2007-08-22, 07:59:00,VALID,917.74,VALID,0,VALID,91.5466,VALID,175.786,VALID,21.1519,VALID,22,VALID,0.0745908,
2007-08-22, 08:00:00,VALID,917.733,VALID,0,VALID,90.9197,VALID,122.737,VALID,21.2622,VALID,22,VALID,0.00111607,
2007-08-22, 08:01:00,VALID,917.733,VALID,0,VALID,90.3895,VALID,127.832,VALID,21.395,VALID,22,VALID,0.267721,
2007-08-22, 08:02:00,VALID,917.725,VALID,0,VALID,89.6596,VALID,155.527,VALID,21.5162,VALID,21,VALID,0.426258,
2007-08-22, 08:03:00,VALID,917.72,VALID,0,VALID,89.0479,VALID,157.939,VALID,21.5346,VALID,21,VALID,0.658612,
2007-08-22, 08:04:00,VALID,917.707,VALID,0,VALID,88.6779,VALID,159.195,VALID,21.5841,VALID,39,VALID,0.614169,
2007-08-22, 08:05:00,VALID,917.691,VALID,0,VALID,87.9327,VALID,160.078,VALID,21.6068,VALID,16,VALID,0.616997,
2007-08-22, 08:06:00,VALID,917.69,VALID,0,VALID,87.7433,VALID,162.116,VALID,21.5941,VALID,6,VALID,0.732244,
2007-08-22, 08:07:00,VALID,917.686,VALID,0,VALID,87.5207,VALID,161.607,VALID,21.5192,VALID,13,VALID,0.496094,
2007-08-22, 08:08:00,VALID,917.699,VALID,0,VALID,88.0675,VALID,160.112,VALID,21.526,VALID,19,VALID,0.475868,
2007-08-22, 08:09:00,VALID,917.701,VALID,0,VALID,88.4693,VALID,159.959,VALID,21.5976,VALID,22,VALID,0.458939,
2007-08-22, 08:10:00,VALID,917.714,VALID,0,VALID,88.6079,VALID,159.501,VALID,21.5909,VALID,22,VALID,0.613104,
2007-08-22, 08:11:00,VALID,917.73,VALID,0,VALID,89.2221,VALID,158.159,VALID,21.6077,VALID,25,VALID,0.698171,
2007-08-22, 08:12:00,VALID,917.746,VALID,0,VALID,88.0256,VALID,164.799,VALID,21.5132,VALID,29,VALID,0.77474,
2007-08-22, 08:13:00,VALID,917.752,VALID,0,VALID,88.4134,VALID,166.837,VALID,21.4451,VALID,29,VALID,0.788336,
2007-08-22, 08:14:00,VALID,917.768,VALID,0,VALID,89.4116,VALID,168.772,VALID,21.5038,VALID,21,VALID,0.529726,
2007-08-22, 08:15:00,VALID,917.769,VALID,0,VALID,89.713,VALID,170.827,VALID,21.487,VALID,16,VALID,0.342147,
2007-08-22, 08:16:00,VALID,917.774,VALID,0,VALID,90.2572,VALID,172.118,VALID,21.5197,VALID,17,VALID,0.350836,
2007-08-22, 08:17:00,VALID,917.785,VALID,0,VALID,90.79,VALID,172.576,VALID,21.6106,VALID,17,VALID,0.391768,
2007-08-22, 08:18:00,VALID,917.798,VALID,0,VALID,90.0143,VALID,172.271,VALID,21.6658,VALID,2,VALID,0.428779,
2007-08-22, 08:19:00,VALID,917.797,VALID,0,VALID,88.5889,VALID,171.489,VALID,21.6363,VALID,333,VALID,0.423633,
2007-08-22, 08:20:00,VALID,917.805,VALID,0,VALID,88.1972,VALID,171.506,VALID,21.5262,VALID,339,VALID,0.721946,
2007-08-22, 08:21:00,VALID,917.811,VALID,0,VALID,88.5215,VALID,171.388,VALID,21.4029,VALID,350,VALID,0.662427,
2007-08-22, 08:22:00,VALID,917.813,VALID,0,VALID,88.8902,VALID,170.471,VALID,21.2895,VALID,326,VALID,0.622159,
2007-08-22, 08:23:00,VALID,917.825,VALID,0,VALID,88.3396,VALID,169.876,VALID,21.1919,VALID,283,VALID,0.641927,
2007-08-22, 08:24:00,VALID,917.815,VALID,0,VALID,88.4147,VALID,170.216,VALID,21.1332,VALID,281,VALID,0.239397,
2007-08-22, 08:25:00,VALID,917.809,VALID,0,VALID,88.7987,VALID,170.08,VALID,21.0834,VALID,284,VALID,0.522485,
2007-08-22, 08:26:00,VALID,917.814,VALID,0,VALID,89.3557,VALID,169.248,VALID,21.0477,VALID,281,VALID,0.425409,
2007-08-22, 08:27:00,VALID,917.813,VALID,0,VALID,89.9037,VALID,170.589,VALID,20.9793,VALID,276,VALID,0.31032,
2007-08-22, 08:28:00,VALID,917.807,VALID,0,VALID,90.4543,VALID,173.969,VALID,20.9633,VALID,276,VALID,0.192587,
2007-08-22, 08:29:00,VALID,917.835,VALID,0,VALID,91.2707,VALID,178.621,VALID,20.9536,VALID,276,VALID,0,
2007-08-22, 08:30:00,VALID,917.855,VALID,0,VALID,92.0807,VALID,185.278,VALID,21.0133,VALID,276,VALID,0,
2007-08-22, 08:31:00,VALID,917.874,VALID,0,VALID,90.9108,VALID,194.838,VALID,21.0391,VALID,278,VALID,0.187318,
2007-08-22, 08:32:00,VALID,917.892,VALID,0,VALID,90.556,VALID,204.245,VALID,21.0588,VALID,296,VALID,0.334028,
2007-08-22, 08:33:00,VALID,917.917,VALID,0,VALID,90.5764,VALID,212.651,VALID,21.098,VALID,312,VALID,0.262305,
2007-08-22, 08:34:00,VALID,917.917,VALID,0,VALID,90.6196,VALID,219.766,VALID,21.1697,VALID,312,VALID,0.0145833,
2007-08-22, 08:35:00,VALID,917.948,VALID,0,VALID,90.2839,VALID,225.76,VALID,21.2703,VALID,312,VALID,0.275568,
2007-08-22, 08:36:00,VALID,917.948,VALID,0,VALID,89.9648,VALID,229.666,VALID,21.335,VALID,312,VALID,0.192224,
2007-08-22, 08:37:00,VALID,917.951,VALID,0,VALID,89.7842,VALID,232.654,VALID,21.3774,VALID,312,VALID,0.122523,
2007-08-22, 08:38:00,VALID,917.955,VALID,0,VALID,89.9088,VALID,236.798,VALID,21.4618,VALID,312,VALID,0.3254,
2007-08-22, 08:39:00,VALID,917.952,VALID,0,VALID,89.6252,VALID,241.909,VALID,21.6012,VALID,318,VALID,0.255022,
2007-08-22, 08:40:00,VALID,917.947,VALID,0,VALID,87.4025,VALID,249.822,VALID,21.6466,VALID,318,VALID,0.423147,
2007-08-22, 08:41:00,VALID,917.947,VALID,0,VALID,87.9518,VALID,271.116,VALID,21.6856,VALID,312,VALID,0.631963,
2007-08-22, 08:42:00,VALID,917.942,VALID,0,VALID,88.449,VALID,279.81,VALID,21.7245,VALID,302,VALID,0.575238,
2007-08-22, 08:43:00,VALID,917.934,VALID,0,VALID,88.2214,VALID,301.053,VALID,21.7145,VALID,310,VALID,0.49343,
2007-08-22, 08:44:00,VALID,917.939,VALID,0,VALID,88.4732,VALID,335.728,VALID,21.731,VALID,331,VALID,0.476563,
2007-08-22, 08:45:00,VALID,917.925,VALID,0,VALID,88.4757,VALID,326.643,VALID,21.8084,VALID,292,VALID,0.375,
2007-08-22, 08:46:00,VALID,917.938,VALID,0,VALID,87.8895,VALID,390.067,VALID,21.8479,VALID,320,VALID,0.710751,
2007-08-22, 08:47:00,VALID,917.918,VALID,0,VALID,88.1146,VALID,495.518,VALID,21.8644,VALID,342,VALID,0.27907,
2007-08-22, 08:48:00,VALID,917.903,VALID,0,VALID,89.245,VALID,451.079,VALID,22.0362,VALID,341,VALID,0.0277158,
2007-08-22, 08:49:00,VALID,917.885,VALID,0,VALID,88.3918,VALID,454.984,VALID,22.1791,VALID,330,VALID,0.670922,
2007-08-22, 08:50:00,VALID,917.868,VALID,0,VALID,86.6662,VALID,421.787,VALID,22.2281,VALID,341,VALID,0.775073,
2007-08-22, 08:51:00,VALID,917.862,VALID,0,VALID,84.7448,VALID,459.009,VALID,22.254,VALID,357,VALID,0.668576,
2007-08-22, 08:52:00,VALID,917.859,VALID,0,VALID,85.0042,VALID,481.678,VALID,22.4342,VALID,319,VALID,0.580915,
2007-08-22, 08:53:00,VALID,917.856,VALID,0,VALID,84.5236,VALID,500.901,VALID,22.5771,VALID,307,VALID,0.209549,
2007-08-22, 08:54:00,VALID,917.866,VALID,0,VALID,84.8059,VALID,542.045,VALID,22.8085,VALID,312,VALID,0.356898,
2007-08-22, 08:55:00,VALID,917.843,VALID,0,VALID,82.241,VALID,579.216,VALID,22.8802,VALID,8,VALID,0.822027,
2007-08-22, 08:56:00,VALID,917.837,VALID,0,VALID,83.6347,VALID,590.78,VALID,22.9836,VALID,5,VALID,0.992188,
2007-08-22, 08:57:00,VALID,917.813,VALID,0,VALID,80.8512,VALID,521.108,VALID,23.1099,VALID,346,VALID,0.748958,
2007-08-22, 08:58:00,VALID,917.804,VALID,0,VALID,82.3224,VALID,412.295,VALID,23.272,VALID,25,VALID,1.19568,
2007-08-22, 08:59:00,VALID,917.802,VALID,0,VALID,80.4977,VALID,391.035,VALID,23.3243,VALID,341,VALID,0.681734,
2007-08-22, 09:00:00,VALID,917.805,VALID,0,VALID,81.1424,VALID,337.477,VALID,23.3479,VALID,9,VALID,0.736192,
2007-08-22, 09:01:00,VALID,917.812,VALID,0,VALID,79.7436,VALID,316.387,VALID,23.3346,VALID,1,VALID,1.38597,
2007-08-22, 09:02:00,VALID,917.852,VALID,0,VALID,80.0717,VALID,324.538,VALID,23.2085,VALID,26,VALID,1.00465,
2007-08-22, 09:03:00,VALID,917.875,VALID,0,VALID,78.7441,VALID,332.094,VALID,23.1111,VALID,12,VALID,0.99809,
2007-08-22, 09:04:00,VALID,917.886,VALID,0,VALID,80.2586,VALID,322.585,VALID,23.1176,VALID,35,VALID,1.23765,
2007-08-22, 09:05:00,VALID,917.894,VALID,0,VALID,79.0417,VALID,311.276,VALID,23.0169,VALID,40,VALID,1.5638,
2007-08-22, 09:06:00,VALID,917.916,VALID,0,VALID,79.4944,VALID,305.638,VALID,22.9292,VALID,36,VALID,1.3861,
2007-08-22, 09:07:00,VALID,917.927,VALID,0,VALID,80.6223,VALID,304.959,VALID,23.0007,VALID,50,VALID,0.982143,
2007-08-22, 09:08:00,VALID,917.929,VALID,0,VALID,80.3985,VALID,305.553,VALID,23.0269,VALID,39,VALID,1.14939,
2007-08-22, 09:09:00,VALID,917.924,VALID,0,VALID,79.4575,VALID,305.791,VALID,23.0072,VALID,41,VALID,1.12578,
2007-08-22, 09:10:00,VALID,917.908,VALID,0,VALID,77.9341,VALID,311.038,VALID,22.9032,VALID,37,VALID,1.05208,
2007-08-22, 09:11:00,VALID,917.898,VALID,0,VALID,80.0958,VALID,315.113,VALID,22.8808,VALID,35,VALID,0.906436,
2007-08-22, 09:12:00,VALID,917.873,VALID,0,VALID,81.4501,VALID,308.202,VALID,23.0343,VALID,32,VALID,0.9268,
2007-08-22, 09:13:00,VALID,917.858,VALID,0,VALID,80.9427,VALID,305.57,VALID,23.174,VALID,24,VALID,0.752362,
2007-08-22, 09:14:00,VALID,917.836,VALID,0,VALID,81.0622,VALID,316.013,VALID,23.3131,VALID,46,VALID,0.883681,
2007-08-22, 09:15:00,VALID,917.836,VALID,0,VALID,78.4796,VALID,329.819,VALID,23.3972,VALID,61,VALID,0.741461,
2007-08-22, 09:16:00,VALID,917.827,VALID,0,VALID,76.2848,VALID,341.468,VALID,23.3946,VALID,78,VALID,0.54524,
2007-08-22, 09:17:00,VALID,917.834,VALID,0,VALID,76.6485,VALID,324.843,VALID,23.4167,VALID,78,VALID,0.472747,
2007-08-22, 09:18:00,VALID,917.849,VALID,0,VALID,76.8443,VALID,313.789,VALID,23.4787,VALID,67,VALID,0.269531,
2007-08-22, 09:19:00,VALID,917.843,VALID,0,VALID,74.2236,VALID,309.442,VALID,23.4814,VALID,17,VALID,0.806641,
2007-08-22, 09:20:00,VALID,917.845,VALID,0,VALID,75.4812,VALID,314.672,VALID,23.4823,VALID,33,VALID,0.523438,
2007-08-22, 09:21:00,VALID,917.847,VALID,0,VALID,75.5409,VALID,324.521,VALID,23.57,VALID,36,VALID,0.862464,
2007-08-22, 09:22:00,VALID,917.842,VALID,0,VALID,74.7284,VALID,333.724,VALID,23.6665,VALID,38,VALID,0.928472,
2007-08-22, 09:23:00,VALID,917.844,VALID,0,VALID,73.453,VALID,339.022,VALID,23.6834,VALID,24,VALID,0.768999,
2007-08-22, 09:24:00,VALID,917.831,VALID,0,VALID,74.4486,VALID,345.645,VALID,23.7938,VALID,22,VALID,0.5125,
2007-08-22, 09:25:00,VALID,917.835,VALID,0,VALID,75.0412,VALID,352.997,VALID,24.028,VALID,46,VALID,1.30806,
2007-08-22, 09:26:00,VALID,917.826,VALID,0,VALID,75.1328,VALID,349.296,VALID,24.1385,VALID,47,VALID,0.883557,
2007-08-22, 09:27:01,VALID,917.832,VALID,0,VALID,75.3871,VALID,338.36,VALID,24.2649,VALID,41,VALID,0.856179,
2007-08-22, 09:28:00,VALID,917.841,VALID,0,VALID,74.3138,VALID,332.722,VALID,24.389,VALID,3,VALID,0.845703,
2007-08-22, 09:29:00,VALID,917.849,VALID,0,VALID,72.7358,VALID,336.696,VALID,24.2951,VALID,357,VALID,0.917969,
2007-08-22, 09:30:00,VALID,917.846,VALID,0,VALID,71.7948,VALID,346.409,VALID,24.1444,VALID,19,VALID,1.25953,
2007-08-22, 09:31:01,VALID,917.853,VALID,0,VALID,71.9245,VALID,363.033,VALID,24.0186,VALID,34,VALID,1.04599,
2007-08-22, 09:32:00,VALID,917.846,VALID,0,VALID,75.7253,VALID,377.976,VALID,24.1391,VALID,315,VALID,0.334263,
2007-08-22, 09:33:00,VALID,917.842,VALID,0,VALID,76.3217,VALID,402.463,VALID,24.2324,VALID,336,VALID,0.376302,
2007-08-22, 09:34:00,VALID,917.848,VALID,0,VALID,71.4057,VALID,427.374,VALID,24.3403,VALID,335,VALID,0.0258681,
2007-08-22, 09:35:00,VALID,917.847,VALID,0,VALID,73.7785,VALID,430.549,VALID,24.5544,VALID,310,VALID,0.21076,
2007-08-22, 09:36:00,VALID,917.848,VALID,0,VALID,73.865,VALID,442.181,VALID,24.7139,VALID,302,VALID,0.164789,
2007-08-22, 09:37:00,VALID,917.852,VALID,0,VALID,72.5196,VALID,458.992,VALID,24.7955,VALID,288,VALID,0.277435,
2007-08-22, 09:38:00,VALID,917.862,VALID,0,VALID,72.6658,VALID,459.569,VALID,24.8085,VALID,266,VALID,0.288504,
2007-08-22, 09:39:00,VALID,917.874,VALID,0,VALID,73.4644,VALID,443.964,VALID,24.8121,VALID,269,VALID,0.164583,
2007-08-22, 09:40:01,VALID,917.881,VALID,0,VALID,72.1089,VALID,434.2,VALID,24.8117,VALID,323,VALID,0.653764,
2007-08-22, 09:41:01,VALID,917.896,VALID,0,VALID,67.306,VALID,427.475,VALID,24.6336,VALID,345,VALID,0.758384,
2007-08-22, 09:42:01,VALID,917.9,VALID,0,VALID,68.734,VALID,435.643,VALID,24.5781,VALID,355,VALID,0.557594,
2007-08-22, 09:43:00,VALID,917.91,VALID,0,VALID,68.3653,VALID,447.377,VALID,24.5092,VALID,7,VALID,1.05543,
2007-08-22, 09:44:01,VALID,917.902,VALID,0,VALID,68.9871,VALID,454.356,VALID,24.5222,VALID,20,VALID,0.858613,
2007-08-22, 09:45:00,VALID,917.906,VALID,0,VALID,68.3297,VALID,453.966,VALID,24.6151,VALID,19,VALID,0.834579,
2007-08-22, 09:46:00,VALID,917.896,VALID,0,VALID,68.5802,VALID,441.892,VALID,24.7649,VALID,31,VALID,0.794497,
2007-08-22, 09:47:01,VALID,917.916,VALID,0,VALID,68.0893,VALID,439.481,VALID,24.8269,VALID,27,VALID,0.500381,
2007-08-22, 09:48:01,VALID,917.903,VALID,0,VALID,68.1669,VALID,433.351,VALID,24.9634,VALID,33,VALID,0.770198,
2007-08-22, 09:49:00,VALID,917.912,VALID,0,VALID,63.7468,VALID,430.855,VALID,25.0613,VALID,32,VALID,0.451936,
2007-08-22, 09:50:00,VALID,917.903,VALID,0,VALID,64.6725,VALID,436.034,VALID,25.1949,VALID,32,VALID,0.0607422,
2007-08-22, 09:51:00,VALID,917.899,VALID,0,VALID,66.3078,VALID,447.292,VALID,25.504,VALID,34,VALID,0.378811,
2007-08-22, 09:52:00,VALID,917.881,VALID,0,VALID,65.1087,VALID,457.956,VALID,25.6493,VALID,360,VALID,0.907315,
2007-08-22, 09:53:01,VALID,917.874,VALID,0,VALID,64.3941,VALID,452.03,VALID,25.6236,VALID,41,VALID,1.03672,
2007-08-22, 09:54:01,VALID,917.87,VALID,0,VALID,66.4401,VALID,449.771,VALID,25.4348,VALID,31,VALID,1.23247,
2007-08-22, 09:55:01,VALID,917.863,VALID,0,VALID,67.0059,VALID,477.552,VALID,25.3766,VALID,44,VALID,1.08921,
2007-08-22, 09:56:01,VALID,917.879,VALID,0,VALID,66.3574,VALID,500.68,VALID,25.465,VALID,31,VALID,1.12309,
2007-08-22, 09:57:00,VALID,917.88,VALID,0,VALID,65.7076,VALID,519.206,VALID,25.4481,VALID,34,VALID,0.916193,
2007-08-22, 09:58:01,VALID,917.862,VALID,0,VALID,66.1247,VALID,569.571,VALID,25.3408,VALID,49,VALID,1.39676,
2007-08-22, 09:59:00,VALID,917.857,VALID,0,VALID,67.9317,VALID,631.755,VALID,25.3177,VALID,25,VALID,1.08003,
2007-08-22, 10:00:01,VALID,917.823,VALID,0,VALID,65.4393,VALID,627.866,VALID,25.441,VALID,56,VALID,1.36406,
2007-08-22, 10:01:00,VALID,917.817,VALID,0,VALID,64.3114,VALID,540.789,VALID,25.3665,VALID,61,VALID,1.47493,
2007-08-22, 10:02:00,VALID,917.779,VALID,0,VALID,66.1107,VALID,530.753,VALID,25.4052,VALID,28,VALID,1.86701,
2007-08-22, 10:03:00,VALID,917.767,VALID,0,VALID,65.2168,VALID,483.818,VALID,25.3925,VALID,24,VALID,1.42578,
2007-08-22, 10:04:00,VALID,917.764,VALID,0,VALID,66.7923,VALID,513.161,VALID,25.4091,VALID,32,VALID,1.51119,
2007-08-22, 10:05:01,VALID,917.735,VALID,0,VALID,66.4426,VALID,479.199,VALID,25.1523,VALID,44,VALID,1.29942,
2007-08-22, 10:06:00,VALID,917.729,VALID,0,VALID,67.802,VALID,531.313,VALID,25.0292,VALID,40,VALID,1.50977,
2007-08-22, 10:07:00,VALID,917.717,VALID,0,VALID,68.0054,VALID,613.212,VALID,25.0354,VALID,42,VALID,1.14931,
2007-08-22, 10:08:00,VALID,917.712,VALID,0,VALID,69.4665,VALID,663.543,VALID,25.1302,VALID,29,VALID,1.32014,
2007-08-22, 10:09:00,VALID,917.711,VALID,0,VALID,68.5242,VALID,728.24,VALID,25.3347,VALID,58,VALID,1.33921,
2007-08-22, 10:10:00,VALID,917.716,VALID,0,VALID,68.4263,VALID,694.448,VALID,25.4228,VALID,31,VALID,1.54908,
2007-08-22, 10:11:00,VALID,917.724,VALID,0,VALID,68.2178,VALID,561.726,VALID,25.5108,VALID,21,VALID,1.57383,
2007-08-22, 10:12:01,VALID,917.72,VALID,0,VALID,68.0537,VALID,541.739,VALID,25.5528,VALID,33,VALID,1.58017,
2007-08-22, 10:13:01,VALID,917.715,VALID,0,VALID,65.4368,VALID,540.194,VALID,25.4683,VALID,44,VALID,1.78232,
2007-08-22, 10:14:01,VALID,917.719,VALID,0,VALID,67.8961,VALID,554.458,VALID,25.2602,VALID,12,VALID,1.49346,
2007-08-22, 10:15:00,VALID,917.712,VALID,0,VALID,66.7389,VALID,628.885,VALID,25.3402,VALID,346,VALID,1.03888,
2007-08-22, 10:16:01,VALID,917.688,VALID,0,VALID,65.7585,VALID,685.754,VALID,25.4634,VALID,351,VALID,1.0026,
2007-08-22, 10:17:00,VALID,917.671,VALID,0,VALID,69.2363,VALID,645.917,VALID,25.6279,VALID,34,VALID,1.46875,
2007-08-22, 10:18:01,VALID,917.656,VALID,0,VALID,67.6303,VALID,694.499,VALID,25.7735,VALID,6,VALID,1.73438,
2007-08-22, 10:19:01,VALID,917.642,VALID,0,VALID,67.7714,VALID,774.462,VALID,25.7738,VALID,2,VALID,0.925959,
2007-08-22, 10:20:01,VALID,917.621,VALID,0,VALID,65.9797,VALID,745.391,VALID,25.9955,VALID,349,VALID,0.753452,
2007-08-22, 10:21:01,VALID,917.595,VALID,0,VALID,65.6364,VALID,757.039,VALID,26.1317,VALID,15,VALID,0.695131,
2007-08-22, 10:22:01,VALID,917.576,VALID,0,VALID,64.9854,VALID,760.69,VALID,26.1161,VALID,64,VALID,1.57146,
2007-08-22, 10:23:01,VALID,917.556,VALID,0,VALID,63.4467,VALID,728.664,VALID,26.0833,VALID,2,VALID,1.13626,
2007-08-22, 10:24:01,VALID,917.541,VALID,0,VALID,65.0413,VALID,689.846,VALID,26.0797,VALID,26,VALID,2.01007,
2007-08-22, 10:25:01,VALID,917.544,VALID,0,VALID,65.8475,VALID,649.228,VALID,26.0443,VALID,44,VALID,1.49848,
2007-08-22, 10:26:01,VALID,917.545,VALID,0,VALID,64.7565,VALID,667.516,VALID,26.2491,VALID,38,VALID,1.56399,
2007-08-22, 10:27:01,VALID,917.544,VALID,0,VALID,62.226,VALID,626.168,VALID,26.2166,VALID,35,VALID,1.44948,
2007-08-22, 10:28:00,VALID,917.553,VALID,0,VALID,61.4223,VALID,640.058,VALID,26.2524,VALID,36,VALID,1.95985,
2007-08-22, 10:29:00,VALID,917.548,VALID,0,VALID,61.7466,VALID,680.592,VALID,26.0901,VALID,40,VALID,1.52852,
2007-08-22, 10:30:00,VALID,917.529,VALID,0,VALID,61.8699,VALID,634.574,VALID,26.0391,VALID,28,VALID,2.05735,
2007-08-22, 10:31:00,VALID,917.548,VALID,0,VALID,60.9391,VALID,566.396,VALID,25.9399,VALID,29,VALID,1.50972,
2007-08-22, 10:32:00,VALID,917.526,VALID,0,VALID,61.5507,VALID,529.089,VALID,25.9926,VALID,42,VALID,0.533612,
2007-08-22, 10:33:00,VALID,917.533,VALID,0,VALID,63.6082,VALID,599.05,VALID,26.1873,VALID,30,VALID,1.50996,
2007-08-22, 10:34:00,VALID,917.541,VALID,0,VALID,62.0721,VALID,622.246,VALID,26.2101,VALID,33,VALID,1.43532,
2007-08-22, 10:35:00,VALID,917.551,VALID,0,VALID,61.5101,VALID,583.309,VALID,26.1912,VALID,25,VALID,1.08828,
2007-08-22, 10:36:00,VALID,917.542,VALID,0,VALID,63.0207,VALID,546.019,VALID,26.2494,VALID,354,VALID,0.563616,
2007-08-22, 10:37:00,VALID,917.548,VALID,0,VALID,61.7796,VALID,556.343,VALID,26.4348,VALID,351,VALID,0.825586,